This demonstration page uses our WeatherBlox Daily Observations layout. Learn more.

Left ArrowRight Arrow

39.92423, -83.80882

Hourly Observations for February 1, 2021

Temp ( °F °C ) Dew Point ( °F °C ) Humidity (%) Winds ( mph kmh ) Pressure ( in mb ) Visibility ( mi km ) Precip ( " mm )
12:56 am 00:56 Cloudy with Light Snow 31 -0.6 31 -0.6 100 100 N 15 24 29.84 1011 9 14 0.00 0.00
1:56 am 01:56 Cloudy with Light Snow 30 -1.1 29 -1.7 96 96 N 13 20 29.85 1011 9 14 0.00 0.00
2:03 am 02:03 Cloudy 28 -2 28 -2 100 100 N 14 22 29.88 1012 9 14 0.00 0.00
2:56 am 02:56 Cloudy 28 -2.2 28 -2.2 100 100 N 18 30 29.87 1012 10 16 0.00 0.00
3:48 am 03:48 Cloudy with Light Snow 27 -3 27 -3 100 100 N 15 24 29.92 1013 4 6 0.00 0.00
3:56 am 03:56 Cloudy with Light Snow 27 -2.8 27 -2.8 100 100 N 15 24 29.89 1012 4 6 0.00 0.00
4:40 am 04:40 Cloudy with Light Snow 27 -3 27 -3 100 100 N 14 22 29.93 1013 3 4 0.00 0.00
4:51 am 04:51 Cloudy with Light Snow 27 -3 27 -3 100 100 N 16 26 29.93 1013 3 5 0.00 0.00
4:56 am 04:56 Cloudy with Light Snow 27 -2.8 26 -3.3 96 96 N 16 26 29.90 1013 4 6 0.00 0.00
5:56 am 05:56 Cloudy with Light Snow 27 -2.8 26 -3.3 96 96 N 16 26 29.92 1013 3 5 0.00 0.00
6:56 am 06:56 Cloudy with Light Snow 26 -3.3 25 -3.9 96 96 N 17 28 29.94 1014 9 14 0.00 0.00
7:47 am 07:47 Cloudy with Light Snow 27 -3 25 -4 93 93 NNW 13 20 30.00 1016 2 3 0.00 0.00
7:56 am 07:56 Cloudy with Light Snow 26 -3.3 25 -3.9 96 96 NNW 16 26 29.97 1015 1 2 0.00 0.00
8:08 am 08:08 Cloudy with Light Snow 25 -4 25 -4 100 100 NNW 14 22 30.00 1016 1 2 0.00 0.00
8:15 am 08:15 Cloudy with Light Snow 25 -4 25 -4 100 100 NNW 15 24 30.01 1016 1 2 0.00 0.00
8:51 am 08:51 Cloudy with Light Snow 25 -4 25 -4 100 100 NNW 15 24 30.01 1016 1 2 0.00 0.00
8:56 am 08:56 Cloudy with Light Snow 25 -3.9 24 -4.4 96 96 NNW 15 24 29.98 1015 1 2 0.00 0.00
9:20 am 09:20 Cloudy with Light Snow 25 -4 25 -4 100 100 NNW 15 24 30.02 1017 2 2 0.00 0.00
9:56 am 09:56 Cloudy with Light Snow 25 -3.9 24 -4.4 96 96 NNW 15 24 29.99 1016 2 3 0.00 0.00
10:08 am 10:08 Cloudy with Light Snow 25 -4 25 -4 100 100 NNW 17 28 30.02 1017 2 2 0.00 0.00
10:40 am 10:40 Cloudy with Light Snow 25 -4 25 -4 100 100 NNW 16 26 30.03 1017 3 5 0.00 0.00
10:56 am 10:56 Cloudy with Light Snow 25 -3.9 24 -4.4 96 96 NNW 15 24 30.00 1016 4 6 0.00 0.00
11:19 am 11:19 Cloudy with Light Snow 25 -4 25 -4 100 100 NNW 17 28 30.03 1017 3 4 0.00 0.00
11:39 am 11:39 Cloudy with Light Snow 25 -4 25 -4 100 100 NNW 18 30 30.03 1017 3 5 0.00 0.00
11:56 am 11:56 Cloudy with Light Snow 25 -3.9 24 -4.4 96 96 NNW 16 26 30.00 1016 5 8 0.00 0.00
12:56 pm 12:56 Cloudy with Mist and Fog 25 -3.9 23 -5 92 92 NNW 22 35 29.99 1016 6 10 0.00 0.00
1:56 pm 13:56 Cloudy 25 -3.9 24 -4.4 96 96 NNW 17 28 29.98 1015 7 11 0.00 0.00
2:56 pm 14:56 Windy with Snow Likely 25 -3.9 23 -5 92 92 NNW 21 33 30.00 1016 7 11 0.00 0.00
3:56 pm 15:56 Cloudy with Light Snow 25 -3.9 23 -5 92 92 NW 16 26 30.02 1017 8 13 0.00 0.00
4:56 pm 16:56 Cloudy with Light Snow 25 -3.9 23 -5 92 92 NNW 14 22 30.03 1017 8 13 0.00 0.00
5:56 pm 17:56 Cloudy with Light Snow 25 -3.9 22 -5.6 88 88 NW 13 20 30.04 1017 8 13 0.00 0.00
6:56 pm 18:56 Cloudy with Light Snow 25 -3.9 23 -5 92 92 NNW 12 19 30.05 1018 3 4 0.00 0.00
7:13 pm 19:13 Cloudy with Light Snow 25 -4 25 -4 100 100 NW 10 17 30.08 1019 3 5 0.00 0.00
7:23 pm 19:23 Cloudy with Light Snow 25 -4 25 -4 100 100 NW 9 15 30.08 1019 3 4 0.00 0.00
7:42 pm 19:42 Cloudy with Light Snow 25 -4 25 -4 100 100 NNW 9 15 30.08 1019 2 3 0.00 0.00
7:52 pm 19:52 Cloudy with Light Snow 25 -4 25 -4 100 100 NW 9 15 30.08 1019 2 3 0.00 0.00
7:56 pm 19:56 Cloudy with Light Snow 24 -4.4 24 -4.4 100 100 NW 9 15 30.06 1018 2 3 0.00 0.00
8:56 pm 20:56 Cloudy with Light Snow 26 -3.3 26 -3.3 100 100 NNW 13 20 30.06 1018 2 2 0.00 0.00
9:07 pm 21:07 Cloudy with Light Snow 27 -3 27 -3 100 100 NNW 13 20 30.09 1019 2 3 0.00 0.00
9:56 pm 21:56 Cloudy with Light Snow 26 -3.3 26 -3.3 100 100 NNW 15 24 30.07 1018 3 4 0.00 0.00
10:14 pm 22:14 Cloudy with Light Snow 27 -3 27 -3 100 100 NNW 13 20 30.09 1019 3 5 0.00 0.00
10:31 pm 22:31 Cloudy with Light Snow 27 -3 27 -3 100 100 NNW 14 22 30.09 1019 3 5 0.00 0.00
10:56 pm 22:56 Cloudy with Light Snow 26 -3.3 25 -3.9 96 96 NNW 16 26 30.07 1018 4 6 0.00 0.00
11:56 pm 23:56 Cloudy with Light Snow 26 -3.3 25 -3.9 96 96 NNW 17 28 30.07 1018 4 6 0.00 0.00

Powered by AerisWeather